Weather History for Stephenville, TX

Change the Weather History Date:

Friday, November 9, 2012

  Actual Average Record
Temperature  
Mean Temperature 72 °F -  
Max Temperature 82 °F 67 °F 89 °F (1980)
Min Temperature 62 °F 47 °F 25 °F (1960)
Cooling Degree Days 7    
Growing Degree Days 22 (Base 50)    
Moisture  
Dew Point 55 °F    
Average Humidity 60    
Maximum Humidity 88    
Minimum Humidity 30    
Precipitation  
Precipitation 0.00 in - - ()
Sea Level Pressure  
Sea Level Pressure 30.00 in    
Wind  
Wind Speed 13 mph (South)    
Max Wind Speed 23 mph    
Max Gust Speed 32 mph    
Visibility 10 miles    
Events      
Averages and records for this station are not official NWS values.
T = Trace of Precipitation, MM = Missing Value Source: NWS Daily Summary

Daily Weather History Graph

Daily Weather History Graph

Search for Another Location

Airport:

Trip Planner

Search our weather history database for the weather conditions in past years. The results will help you decide how hot, cold, wet, or windy it might be!

Date:

Astronomy

Nov. 09, 2012 Rise Set
Actual Time 6:56 AM CST 5:35 PM CST
Civil Twilight 6:31 AM CST 6:01 PM CST
Nautical Twilight 6:01 AM CST 6:30 PM CST
Astronomical Twilight 5:32 AM CST 6:59 PM CST
Moon 2:13 AM CST (11/9) 2:36 PM CST (11/9)
Length of Visible Light 11h 30m
Length of Day
10h 38m
Waning Crescent, 23% of the Moon is Illuminated
Nov 9
Waning Crescent
Nov 13
New
Nov 20
First Quarter
Nov 28
Full
Dec 6
Last Quarter

Hourly Weather History & Observations

Time (CST) Temp. Dew Point Humidity Pressure Visibility Wind Dir Wind Speed Gust Speed Precip Events Conditions
12:15 AM 66.2 °F 53.6 °F 64% 30.02 in 10.0 mi South 13.8 mph 20.7 mph N/A   Clear
12:35 AM 64.4 °F 55.4 °F 73% 30.02 in 10.0 mi South 10.4 mph 20.7 mph N/A   Clear
12:55 AM 64.4 °F 55.4 °F 73% 30.02 in 10.0 mi South 12.7 mph - N/A   Clear
1:15 AM 64.4 °F 55.4 °F 73% 30.01 in 10.0 mi South 12.7 mph 19.6 mph N/A   Clear
1:35 AM 64.4 °F 57.2 °F 77% 30.02 in 10.0 mi South 10.4 mph 18.4 mph N/A   Clear
1:55 AM 64.4 °F 59.0 °F 83% 30.02 in 10.0 mi South 11.5 mph 18.4 mph N/A   Scattered Clouds
2:15 AM 64.4 °F 59.0 °F 83% 30.02 in 10.0 mi South 12.7 mph 16.1 mph N/A   Mostly Cloudy
2:35 AM 64.4 °F 59.0 °F 83% 30.02 in 10.0 mi South 10.4 mph - N/A   Scattered Clouds
2:55 AM 64.4 °F 59.0 °F 83% 30.02 in 10.0 mi South 9.2 mph - N/A   Scattered Clouds
3:15 AM 64.4 °F 59.0 °F 83% 30.01 in 10.0 mi South 10.4 mph - N/A   Scattered Clouds
3:35 AM 64.4 °F 59.0 °F 83% 30.01 in 10.0 mi South 11.5 mph 17.3 mph N/A   Clear
3:55 AM 62.6 °F 59.0 °F 88% 30.01 in 10.0 mi South 11.5 mph 17.3 mph N/A   Clear
4:15 AM 62.6 °F 59.0 °F 88% 30.01 in 10.0 mi South 6.9 mph - N/A   Clear
4:35 AM 62.6 °F 59.0 °F 88% 30.01 in 10.0 mi South 8.1 mph - N/A   Clear
4:55 AM 62.6 °F 59.0 °F 88% 30.01 in 10.0 mi South 9.2 mph - N/A   Clear
5:15 AM 62.6 °F 59.0 °F 88% 30.01 in 10.0 mi South 9.2 mph - N/A   Clear
5:35 AM 62.6 °F 57.2 °F 82% 30.01 in 10.0 mi South 10.4 mph - N/A   Clear
5:55 AM 62.6 °F 57.2 °F 82% 30.01 in 10.0 mi South 9.2 mph - N/A   Clear
6:15 AM 62.6 °F 57.2 °F 82% 30.01 in 10.0 mi South 8.1 mph - N/A   Clear
6:35 AM 62.6 °F 57.2 °F 82% 30.01 in 10.0 mi South 9.2 mph - N/A   Clear
6:55 AM 62.6 °F 57.2 °F 82% 30.01 in 10.0 mi South 9.2 mph - N/A   Clear
7:15 AM 62.6 °F 57.2 °F 82% 30.01 in 10.0 mi South 8.1 mph - N/A   Clear
7:35 AM 62.6 °F 59.0 °F 88% 30.02 in 10.0 mi South 10.4 mph 16.1 mph N/A   Clear
7:55 AM 64.4 °F 59.0 °F 83% 30.02 in 10.0 mi South 10.4 mph - N/A   Clear
8:15 AM 64.4 °F 59.0 °F 83% 30.03 in 10.0 mi South 12.7 mph 18.4 mph N/A   Clear
8:35 AM 66.2 °F 59.0 °F 78% 30.03 in 10.0 mi South 16.1 mph 23.0 mph N/A   Clear
8:55 AM 68.0 °F 59.0 °F 73% 30.03 in 10.0 mi South 19.6 mph 26.5 mph N/A   Clear
9:15 AM 69.8 °F 59.0 °F 68% 30.03 in 10.0 mi South 15.0 mph 25.3 mph N/A   Clear
9:35 AM 69.8 °F 59.0 °F 68% 30.03 in 10.0 mi South 19.6 mph 27.6 mph N/A   Clear
9:55 AM 71.6 °F 59.0 °F 64% 30.04 in 10.0 mi South 16.1 mph 28.8 mph N/A   Clear
10:15 AM 71.6 °F 59.0 °F 64% 30.04 in 10.0 mi South 17.3 mph 25.3 mph N/A   Clear
10:35 AM 73.4 °F 57.2 °F 57% 30.04 in 10.0 mi South 16.1 mph 31.1 mph N/A   Clear
10:55 AM 73.4 °F 55.4 °F 53% 30.03 in 10.0 mi South 23.0 mph 27.6 mph N/A   Clear
11:15 AM 77.0 °F 55.4 °F 47% 30.03 in 10.0 mi SSW 18.4 mph 25.3 mph N/A   Clear
11:35 AM 77.0 °F 53.6 °F 44% 30.02 in 10.0 mi South 20.7 mph 28.8 mph N/A   Clear
11:55 AM 78.8 °F 51.8 °F 39% 30.01 in 10.0 mi South 19.6 mph 29.9 mph N/A   Clear
12:15 PM 78.8 °F 51.8 °F 39% 30.00 in 10.0 mi South 17.3 mph 31.1 mph N/A   Clear
12:35 PM 78.8 °F 51.8 °F 39% 29.99 in 10.0 mi South 17.3 mph 28.8 mph N/A   Clear
12:55 PM 78.8 °F 51.8 °F 39% 29.98 in 10.0 mi South 13.8 mph 29.9 mph N/A   Clear
1:15 PM 80.6 °F 51.8 °F 37% 29.97 in 10.0 mi SSW 17.3 mph 26.5 mph N/A   Clear
1:35 PM 80.6 °F 51.8 °F 37% 29.96 in 10.0 mi South 23.0 mph 32.2 mph N/A   Clear
1:55 PM 80.6 °F 51.8 °F 37% 29.95 in 10.0 mi South 18.4 mph 27.6 mph N/A   Clear
2:15 PM 80.6 °F 50.0 °F 34% 29.95 in 10.0 mi South 13.8 mph 26.5 mph N/A   Clear
2:35 PM 80.6 °F 50.0 °F 34% 29.95 in 10.0 mi South 17.3 mph 24.2 mph N/A   Clear
2:55 PM 82.4 °F 50.0 °F 32% 29.94 in 10.0 mi South 13.8 mph 27.6 mph N/A   Clear
3:15 PM 80.6 °F 50.0 °F 34% 29.94 in 10.0 mi South 16.1 mph 26.5 mph N/A   Clear
3:35 PM 80.6 °F 48.2 °F 32% 29.94 in 10.0 mi South 20.7 mph 26.5 mph N/A   Clear
3:55 PM 80.6 °F 48.2 °F 32% 29.94 in 10.0 mi South 16.1 mph 24.2 mph N/A   Clear
4:15 PM 80.6 °F 46.4 °F 30% 29.94 in 10.0 mi South 18.4 mph 28.8 mph N/A   Clear
4:35 PM 80.6 °F 50.0 °F 34% 29.94 in 10.0 mi South 16.1 mph 21.9 mph N/A   Clear
4:55 PM 78.8 °F 50.0 °F 36% 29.95 in 10.0 mi South 13.8 mph 24.2 mph N/A   Clear
5:15 PM 77.0 °F 51.8 °F 41% 29.95 in 10.0 mi South 13.8 mph 19.6 mph N/A   Clear
5:35 PM 77.0 °F 51.8 °F 41% 29.96 in 10.0 mi South 15.0 mph 19.6 mph N/A   Clear
5:55 PM 75.2 °F 51.8 °F 44% 29.96 in 10.0 mi South 11.5 mph 18.4 mph N/A   Clear
6:15 PM 75.2 °F 51.8 °F 44% 29.96 in 10.0 mi South 10.4 mph 18.4 mph N/A   Clear
6:35 PM 73.4 °F 51.8 °F 47% 29.97 in 10.0 mi South 10.4 mph - N/A   Clear
6:55 PM 73.4 °F 51.8 °F 47% 29.97 in 10.0 mi South 6.9 mph - N/A   Clear
7:15 PM 71.6 °F 51.8 °F 50% 29.97 in 10.0 mi South 8.1 mph - N/A   Clear
7:35 PM 71.6 °F 51.8 °F 50% 29.97 in 10.0 mi South 8.1 mph - N/A   Clear
7:55 PM 71.6 °F 51.8 °F 50% 29.98 in 10.0 mi South 8.1 mph - N/A   Clear
8:15 PM 69.8 °F 51.8 °F 53% 29.98 in 10.0 mi South 9.2 mph - N/A   Clear
8:35 PM 69.8 °F 53.6 °F 56% 29.99 in 10.0 mi South 9.2 mph - N/A   Clear
8:55 PM 69.8 °F 53.6 °F 56% 29.99 in 10.0 mi South 11.5 mph 16.1 mph N/A   Clear
9:15 PM 69.8 °F 53.6 °F 56% 29.99 in 10.0 mi South 10.4 mph 16.1 mph N/A   Clear
9:35 PM 69.8 °F 53.6 °F 56% 30.00 in 10.0 mi South 12.7 mph 20.7 mph N/A   Clear
9:55 PM 69.8 °F 53.6 °F 56% 30.00 in 10.0 mi South 12.7 mph 18.4 mph N/A   Clear
10:15 PM 69.8 °F 53.6 °F 56% 30.01 in 10.0 mi South 12.7 mph 18.4 mph N/A   Clear
10:35 PM 69.8 °F 53.6 °F 56% 30.01 in 10.0 mi South 10.4 mph - N/A   Clear
10:55 PM 68.0 °F 53.6 °F 60% 30.01 in 10.0 mi South 12.7 mph 19.6 mph N/A   Clear
11:15 PM 68.0 °F 53.6 °F 60% 30.01 in 10.0 mi South 13.8 mph - N/A   Clear
11:35 PM 68.0 °F 53.6 °F 60% 30.01 in 10.0 mi South 13.8 mph 23.0 mph N/A   Clear
11:55 PM 68.0 °F 55.4 °F 64% 30.01 in 10.0 mi South 16.1 mph 20.7 mph N/A   Clear